Wind_Speed
18 19 19 19 20 20 20 20 21 21 21 22 21 20 19 19 19 18 18 18 18 19 19 19 19 19 19 19 18 18 17 17 17 17 18 18 17 17
20 20 21 21 21 21 21 22 22 23 23 23 22 21 20 21 20 20 20 20 20 20 20 20 20 20 19 19 19 19 18 18 19 18 18 18 18 18
21 22 22 22 22 22 23 23 24 24 24 24 24 23 22 22 21 21 21 21 21 21 21 21 21 21 21 20 20 20 20 19 19 19 19 20 20 19
23 24 24 24 24 24 24 25 25 25 25 24 24 24 23 22 22 22 22 22 22 22 22 22 22 22 21 21 21 21 21 21 21 21 21 21 21 21
24 25 25 25 25 25 26 26 26 26 26 26 25 24 23 23 24 24 24 23 23 22 22 22 22 22 22 22 22 23 22 23 23 23 23 23 24 24
26 26 26 25 26 27 26 26 27 27 26 26 25 24 24 24 24 24 24 24 24 23 23 23 23 23 23 23 24 24 24 25 25 25 25 26 26 26
27 27 27 26 27 27 27 27 28 27 27 26 25 24 24 24 25 25 24 25 25 24 24 24 24 24 24 25 25 26 26 26 27 27 27 27 28 28
28 28 27 27 27 28 28 28 28 28 27 26 25 25 24 25 26 26 26 26 26 26 26 26 26 26 26 26 26 27 27 27 27 28 29 29 29 29
28 28 28 28 28 29 28 28 28 28 28 27 26 26 26 26 26 26 26 26 26 26 26 27 27 27 27 27 28 28 28 28 29 29 30 30 29 30
28 28 28 28 28 28 28 27 28 28 28 28 28 27 27 27 27 27 26 26 26 27 27 27 27 28 28 28 29 29 29 29 29 29 29 30 30 30
29 28 28 28 28 28 28 28 28 28 28 28 29 28 28 28 27 27 27 28 28 28 28 28 28 28 28 29 29 29 29 29 29 29 29 30 30 30
28 28 28 28 28 28 28 28 28 28 29 29 29 28 28 28 28 28 28 28 28 28 28 28 28 28 28 29 29 29 29 29 29 29 29 30 30 30
29 29 29 29 29 29 28 28 28 29 29 29 29 29 29 28 28 29 29 29 29 28 28 28 28 28 28 28 29 29 29 28 29 29 29 30 30 30
29 30 30 29 28 28 28 28 28 29 29 30 30 30 29 29 29 30 30 30 29 29 28 28 28 28 28 28 29 29 28 28 29 29 29 30 30 30
30 29 29 29 28 28 28 28 29 30 31 31 31 30 30 30 30 30 29 29 29 29 29 29 28 28 28 29 29 29 28 28 27 28 28 29 29 29
31 30 30 30 29 28 28 30 31 31 31 31 30 30 30 30 29 29 29 29 29 29 29 30 29 29 28 28 28 28 28 28 27 26 26 27 28 27
31 31 30 30 29 29 29 30 31 31 31 31 30 30 30 29 29 28 29 29 29 29 29 29 29 30 30 29 28 28 28 27 28 27 26 26 27 27
30 30 30 30 30 30 29 30 31 31 31 30 30 29 29 29 29 29 29 29 29 29 29 29 29 30 30 29 29 29 28 28 28 27 28 28 27 27
31 31 30 30 30 30 30 30 30 30 30 30 29 30 30 30 30 30 29 30 30 29 29 30 30 30 29 29 29 29 29 29 29 29 29 29 29 28
30 30 30 30 30 31 31 31 31 30 30 30 30 30 30 31 31 31 30 30 30 30 30 30 30 29 29 29 29 29 29 29 30 30 30 30 29 29
29 29 30 31 32 32 32 32 31 31 31 31 31 31 31 31 31 31 31 31 31 30 30 30 30 30 30 29 29 29 30 30 30 30 30 30 30 29
29 30 31 31 31 32 32 32 31 32 33 33 32 31 32 32 31 31 30 30 31 31 31 31 31 31 31 31 31 30 31 31 31 31 30 30 29 28
29 30 31 31 31 31 32 32 32 33 33 33 33 32 32 32 31 31 32 32 32 32 32 32 32 31 31 32 32 32 32 32 32 31 31 30 29 28
Wind_Direction
302 300 300 301 302 303 304 305 305 305 305 304 302 301 296 293 290 290 285 283 280 279 278 277 279 280 277 278 276 274 275 274 270 268 266 263 263 264
298 299 299 299 300 300 301 301 302 302 302 302 301 301 296 290 287 286 284 282 279 277 278 277 277 277 277 276 275 274 273 272 269 268 267 267 266 267
296 297 297 296 297 298 300 300 301 302 301 300 300 299 295 291 287 284 282 282 279 277 276 276 275 275 274 273 272 273 272 270 269 267 268 266 266 266
295 295 296 295 295 296 297 297 299 299 299 298 298 295 292 290 288 285 284 282 280 278 276 276 274 273 273 271 272 272 270 268 267 267 268 268 267 265
294 294 295 295 294 296 298 297 297 298 297 296 295 293 291 289 288 286 284 282 282 280 278 276 275 274 272 271 272 270 270 269 268 267 267 267 267 265
296 294 293 294 295 297 297 297 297 297 296 295 294 292 291 289 289 287 283 281 281 281 279 277 274 273 273 272 272 272 271 270 269 269 268 268 266 266
296 295 292 292 294 296 297 298 297 296 295 295 294 292 290 288 288 287 285 283 282 282 281 278 274 272 273 272 271 272 273 273 272 271 269 267 266 266
296 295 293 293 294 295 296 296 296 295 294 294 293 291 291 289 288 287 286 284 283 283 281 279 277 275 274 274 273 273 274 273 272 270 269 268 267 266
297 296 295 295 294 296 295 294 296 295 294 293 293 291 290 289 288 288 287 286 284 283 281 280 278 277 276 276 275 275 276 274 273 272 271 269 269 268
297 296 296 295 296 296 295 296 296 294 293 292 292 291 291 288 287 288 287 286 286 284 283 284 281 278 277 277 276 275 275 274 272 271 270 269 268 268
298 298 298 298 297 297 297 296 295 294 293 293 292 291 291 290 289 288 288 287 287 287 286 286 284 280 278 277 277 276 275 274 273 272 272 271 269 268
300 299 298 299 297 295 295 296 296 296 295 294 292 291 290 290 289 289 288 287 287 288 287 286 285 282 279 278 277 276 275 273 273 273 272 272 271 269
299 299 298 298 296 294 295 296 296 296 295 294 293 291 291 291 290 289 288 286 285 286 285 285 284 282 280 279 277 278 276 273 271 271 272 272 272 270
298 297 297 296 293 293 295 295 296 296 295 293 293 292 291 290 288 287 287 287 285 285 285 285 285 283 281 278 278 278 278 275 273 271 271 271 270 269
296 296 295 295 293 292 293 294 295 296 296 295 294 293 292 291 289 288 287 286 286 285 285 285 285 284 283 281 279 279 280 280 278 275 271 270 269 269
295 294 294 293 292 292 293 293 294 296 297 296 295 293 292 293 292 290 288 288 287 286 285 285 284 283 283 283 282 281 281 280 280 278 274 273 272 269
294 292 291 292 293 293 293 295 297 297 297 296 295 293 292 292 292 290 289 289 288 287 285 285 285 284 283 282 281 281 281 279 278 276 275 275 275 273
293 293 293 293 295 295 295 295 297 297 298 298 296 293 291 291 292 291 290 290 290 289 287 286 286 285 283 281 280 280 278 277 276 275 275 274 274 273
292 292 293 293 295 296 296 297 298 299 299 297 295 294 292 291 291 291 291 290 289 288 288 287 285 284 282 280 279 279 277 275 275 274 274 273 273 271
294 293 293 293 294 296 296 297 298 299 299 298 296 294 293 292 291 291 290 289 288 287 286 286 285 284 283 281 279 278 276 275 274 273 273 273 273 270
295 296 296 295 295 296 297 297 297 297 297 297 297 294 294 293 292 290 289 289 289 288 287 286 285 282 280 280 282 281 278 277 275 275 274 273 272 270
298 298 298 297 296 297 298 298 296 296 296 296 295 293 292 292 292 291 289 289 289 288 287 286 284 280 278 279 281 280 278 276 275 275 274 272 271 269
299 300 299 299 299 298 298 298 297 297 297 296 295 293 292 291 290 290 289 288 289 288 286 285 283 280 279 279 280 279 276 275 273 272 271 270 269 266
Height
5867 5866 5864 5863 5861 5860 5858 5856 5855 5853 5851 5849 5848 5846 5845 5843 5842 5842 5841 5841 5840 5840 5840 5840 5840 5840 5839 5839 5839 5838 5839 5839 5839 5840 5840 5841 5842 5842
5862 5861 5860 5858 5857 5855 5853 5851 5849 5847 5846 5844 5842 5840 5839 5838 5837 5836 5836 5835 5835 5835 5834 5834 5834 5834 5834 5834 5833 5834 5834 5834 5834 5835 5835 5836 5837 5837
5858 5856 5855 5853 5851 5850 5848 5846 5844 5842 5841 5839 5837 5835 5834 5832 5831 5830 5830 5829 5829 5828 5828 5828 5828 5828 5828 5828 5828 5828 5828 5829 5829 5829 5830 5830 5831 5832
5853 5851 5849 5848 5846 5844 5842 5840 5838 5836 5835 5833 5831 5829 5827 5826 5825 5824 5823 5822 5822 5822 5822 5822 5822 5822 5821 5822 5822 5822 5822 5822 5823 5823 5824 5824 5825 5825
5847 5845 5843 5842 5840 5838 5836 5834 5832 5830 5828 5826 5825 5823 5821 5820 5819 5818 5817 5816 5815 5815 5815 5815 5815 5815 5815 5815 5815 5815 5816 5816 5816 5816 5817 5817 5818 5818
5840 5839 5837 5836 5834 5832 5830 5828 5826 5824 5821 5819 5818 5816 5815 5813 5812 5811 5810 5809 5808 5808 5807 5807 5807 5807 5808 5808 5808 5808 5808 5808 5809 5809 5809 5810 5810 5810
5833 5832 5830 5829 5827 5825 5823 5821 5819 5817 5815 5813 5811 5809 5808 5806 5805 5804 5803 5802 5801 5800 5800 5799 5799 5800 5799 5800 5800 5800 5800 5800 5800 5800 5800 5801 5801 5802
5826 5825 5823 5822 5820 5818 5816 5814 5812 5810 5807 5806 5804 5803 5801 5800 5798 5797 5796 5794 5793 5793 5792 5791 5791 5791 5791 5791 5791 5791 5791 5791 5791 5791 5791 5791 5792 5792
5820 5818 5816 5814 5813 5810 5808 5807 5805 5802 5801 5799 5797 5795 5794 5792 5791 5789 5788 5786 5785 5784 5783 5783 5782 5782 5782 5782 5782 5782 5782 5782 5782 5781 5781 5781 5782 5782
5813 5811 5809 5807 5805 5803 5801 5799 5797 5795 5793 5792 5790 5788 5786 5784 5783 5782 5780 5779 5778 5776 5775 5774 5773 5773 5772 5772 5773 5772 5772 5772 5772 5771 5771 5771 5771 5772
5806 5804 5802 5800 5798 5796 5794 5792 5790 5788 5785 5783 5782 5780 5778 5776 5775 5774 5772 5771 5770 5768 5767 5766 5765 5764 5763 5763 5763 5763 5762 5762 5762 5762 5761 5761 5761 5761
5799 5797 5795 5793 5790 5788 5786 5784 5782 5780 5778 5776 5774 5772 5770 5768 5766 5765 5764 5762 5761 5760 5758 5757 5756 5755 5755 5754 5753 5753 5752 5752 5752 5751 5751 5750 5750 5750
5792 5790 5787 5785 5783 5781 5779 5777 5775 5773 5770 5768 5766 5764 5762 5760 5758 5757 5755 5754 5752 5751 5750 5748 5746 5745 5745 5745 5744 5742 5742 5742 5741 5741 5740 5740 5739 5739
5784 5781 5779 5777 5775 5773 5771 5769 5767 5765 5762 5760 5758 5756 5754 5752 5750 5748 5746 5745 5743 5742 5740 5739 5737 5736 5735 5735 5734 5733 5732 5731 5731 5730 5730 5729 5729 5728
5776 5773 5771 5769 5767 5765 5763 5761 5759 5757 5754 5752 5750 5747 5745 5743 5741 5739 5738 5736 5734 5733 5731 5729 5728 5727 5726 5725 5724 5724 5722 5721 5720 5720 5719 5719 5718 5718
5767 5765 5763 5761 5759 5757 5755 5753 5750 5748 5745 5743 5741 5738 5736 5734 5732 5730 5729 5727 5726 5724 5722 5720 5719 5718 5717 5716 5715 5714 5713 5711 5710 5710 5709 5709 5709 5708
5760 5757 5755 5753 5751 5749 5747 5745 5742 5739 5737 5734 5732 5729 5727 5725 5723 5721 5720 5718 5717 5715 5714 5712 5710 5708 5707 5706 5705 5704 5703 5702 5701 5700 5700 5700 5699 5699
5751 5749 5747 5745 5743 5741 5738 5736 5734 5731 5728 5725 5723 5720 5718 5716 5714 5712 5710 5709 5707 5705 5704 5702 5700 5699 5698 5696 5695 5694 5693 5692 5692 5691 5691 5691 5690 5690
5743 5741 5739 5737 5734 5732 5730 5728 5725 5722 5719 5716 5714 5711 5709 5707 5705 5703 5701 5699 5697 5695 5694 5692 5690 5689 5688 5687 5686 5684 5683 5682 5682 5681 5681 5681 5681 5681
5735 5732 5730 5728 5726 5724 5721 5719 5716 5713 5710 5708 5705 5702 5700 5698 5696 5694 5692 5690 5687 5685 5683 5682 5680 5678 5677 5676 5675 5674 5672 5672 5671 5671 5671 5670 5670 5670
5727 5724 5722 5720 5718 5715 5713 5710 5707 5704 5701 5699 5696 5693 5691 5688 5686 5684 5682 5679 5677 5675 5673 5671 5669 5668 5666 5665 5664 5664 5662 5662 5661 5660 5660 5660 5660 5660
5719 5716 5714 5711 5709 5706 5703 5700 5698 5695 5692 5689 5686 5684 5681 5679 5676 5674 5671 5669 5667 5665 5662 5660 5658 5657 5656 5655 5654 5653 5652 5651 5650 5649 5649 5649 5649 5650
5710 5708 5705 5702 5699 5696 5694 5691 5688 5685 5682 5679 5677 5674 5670 5668 5666 5664 5661 5658 5656 5653 5651 5649 5647 5646 5645 5644 5643 5642 5641 5640 5640 5639 5639 5639 5639 5640